| time (UTC) | temp F | wind direction | speed knots | gust knots | rain 1hr in | rain 24hr in | rain mn in | humidity % | barometer mb |
| 20260906052538 | 74 | 43 | 3.5 | 6.1 | 0.00 | 0.00 | 0.00 | 86 | 1017.9 |
| 20260906052038 | 74 | 33 | 3.5 | 6.1 | 0.00 | 0.00 | 0.00 | 86 | 1017.9 |
| 20260906051558 | 74 | 36 | 2.6 | 6.1 | 0.00 | 0.00 | 0.00 | 86 | 1017.8 |
| 20260906051036 | 74 | 36 | 3.5 | 7.0 | 0.00 | 0.00 | 0.00 | 86 | 1017.8 |
| 20260906050536 | 74 | 32 | 3.5 | 7.0 | 0.00 | 0.00 | 0.00 | 86 | 1017.6 |
| 20260906050052 | 74 | 38 | 2.6 | 5.2 | 0.00 | 0.00 | 0.00 | 86 | 1017.6 |
| 20260906045539 | 74 | 25 | 1.7 | 5.2 | 0.00 | 0.00 | 0.00 | 86 | 1017.5 |
| 20260906045037 | 74 | 41 | 1.7 | 5.2 | 0.00 | 0.00 | 0.00 | 86 | 1017.4 |
| 20260906044549 | 74 | 43 | 2.6 | 5.2 | 0.00 | 0.00 | 0.00 | 86 | 1017.3 |
| 20260906044036 | 74 | 34 | 2.6 | 6.1 | 0.00 | 0.00 | 0.00 | 86 | 1017.3 |
| 20260906043536 | 74 | 32 | 2.6 | 6.1 | 0.00 | 0.00 | 0.00 | 85 | 1017.4 |
| 20260906043054 | 75 | 36 | 2.6 | 6.1 | 0.00 | 0.00 | 0.00 | 85 | 1017.4 |
| 20260906042536 | 75 | 31 | 2.6 | 6.1 | 0.00 | 0.00 | 0.00 | 85 | 1017.4 |
| 20260906042038 | 75 | 39 | 2.6 | 6.1 | 0.00 | 0.00 | 0.00 | 85 | 1017.5 |
| 20260906041553 | 75 | 35 | 2.6 | 4.3 | 0.00 | 0.00 | 0.00 | 85 | 1017.5 |
| 20260906041038 | 75 | 37 | 1.7 | 4.3 | 0.00 | 0.00 | 0.00 | 85 | 1017.5 |
| 20260906040538 | 75 | 38 | 2.6 | 5.2 | 0.00 | 0.00 | 0.00 | 85 | 1017.3 |
| 20260906040050 | 75 | 61 | 2.6 | 7.0 | 0.00 | 0.00 | 0.00 | 85 | 1017.2 |
| 20260906035537 | 75 | 34 | 3.5 | 7.0 | 0.00 | 0.00 | 0.00 | 85 | 1016.9 |
| 20260906035039 | 75 | 40 | 3.5 | 7.0 | 0.00 | 0.00 | 0.00 | 85 | 1016.7 |
| 20260906034604 | 75 | 47 | 3.5 | 6.1 | 0.00 | 0.00 | 0.00 | 85 | 1016.7 |
| 20260906034038 | 75 | 64 | 3.5 | 6.1 | 0.00 | 0.00 | 0.00 | 85 | 1016.8 |
| 20260906033534 | 75 | 59 | 2.6 | 7.0 | 0.00 | 0.00 | 0.00 | 85 | 1016.7 |
| 20260906033055 | 75 | 43 | 2.6 | 7.0 | 0.00 | 0.00 | 0.00 | 84 | 1016.7 |
| 20260906032538 | 76 | 73 | 3.5 | 7.0 | 0.00 | 0.00 | 0.00 | 84 | 1016.6 |
| 20260906032035 | 76 | 26 | 3.5 | 7.0 | 0.00 | 0.00 | 0.00 | 84 | 1016.7 |
| 20260906031554 | 76 | 57 | 4.3 | 7.0 | 0.00 | 0.00 | 0.00 | 84 | 1016.7 |
| 20260906031038 | 76 | 70 | 3.5 | 7.0 | 0.00 | 0.00 | 0.00 | 84 | 1016.8 |
| 20260906030535 | 76 | 74 | 2.6 | 7.0 | 0.00 | 0.00 | 0.00 | 84 | 1016.8 |
| 20260906030056 | 76 | 58 | 2.6 | 6.1 | 0.00 | 0.00 | 0.00 | 84 | 1016.8 |
| 20260906025534 | 76 | 35 | 3.5 | 7.8 | 0.00 | 0.00 | 0.00 | 84 | 1016.8 |
| 20260906025040 | 77 | 51 | 5.2 | 9.6 | 0.00 | 0.00 | 0.00 | 84 | 1016.9 |
| 20260906024557 | 77 | 36 | 5.2 | 9.6 | 0.00 | 0.00 | 0.00 | 84 | 1016.8 |
| 20260906024038 | 77 | 59 | 4.3 | 7.8 | 0.00 | 0.00 | 0.00 | 84 | 1017.0 |
| 20260906023538 | 77 | 49 | 3.5 | 7.8 | 0.00 | 0.00 | 0.00 | 84 | 1016.7 |
| 20260906023048 | 77 | 68 | 4.3 | 8.7 | 0.00 | 0.00 | 0.00 | 83 | 1016.8 |
| 20260906022537 | 78 | 49 | 5.2 | 8.7 | 0.00 | 0.00 | 0.00 | 83 | 1016.7 |
| 20260906022038 | 78 | 43 | 5.2 | 10.4 | 0.00 | 0.00 | 0.00 | 83 | 1016.7 |
| 20260906021556 | 78 | 46 | 5.2 | 10.4 | 0.00 | 0.00 | 0.00 | 82 | 1016.6 |
| 20260906021119 | 78 | 50 | 6.1 | 9.6 | 0.00 | 0.00 | 0.00 | 82 | 1016.5 |
| 20260906020535 | 78 | 30 | 6.1 | 9.6 | 0.00 | 0.00 | 0.00 | 82 | 1016.4 |
| 20260906020056 | 79 | 35 | 4.3 | 9.6 | 0.00 | 0.00 | 0.00 | 82 | 1016.3 |
| 20260906015535 | 79 | 53 | 6.1 | 9.6 | 0.00 | 0.00 | 0.00 | 82 | 1016.3 |
| 20260906015037 | 79 | 34 | 6.1 | 9.6 | 0.00 | 0.00 | 0.00 | 82 | 1016.3 |
| 20260906014554 | 79 | 36 | 5.2 | 11.3 | 0.00 | 0.00 | 0.00 | 82 | 1016.3 |
| 20260906014034 | 79 | 24 | 7.0 | 11.3 | 0.00 | 0.00 | 0.00 | 81 | 1016.1 |
| 20260906013541 | 80 | 30 | 7.8 | 11.3 | 0.00 | 0.00 | 0.00 | 81 | 1016.1 |
| 20260906013058 | 80 | 32 | 7.0 | 9.6 | 0.00 | 0.00 | 0.00 | 81 | 1016.1 |
| 20260906012537 | 80 | 16 | 6.1 | 9.6 | 0.00 | 0.00 | 0.00 | 81 | 1016.1 |
| 20260906012038 | 81 | 31 | 7.0 | 9.6 | 0.00 | 0.00 | 0.00 | 80 | 1016.1 |
| 20260906011555 | 81 | 32 | 7.0 | 10.4 | 0.00 | 0.00 | 0.00 | 80 | 1016.1 |
| 20260906011035 | 81 | 42 | 7.0 | 10.4 | 0.00 | 0.00 | 0.00 | 79 | 1015.9 |
| 20260906010539 | 82 | 37 | 5.2 | 9.6 | 0.00 | 0.00 | 0.00 | 79 | 1015.8 |
| 20260906010137 | 82 | 28 | 5.2 | 9.6 | 0.00 | 0.00 | 0.00 | 79 | 1015.8 |
| 20260906005534 | 82 | 36 | 6.1 | 9.6 | 0.00 | 0.00 | 0.00 | 78 | 1015.7 |
| 20260906005040 | 82 | 28 | 6.1 | 8.7 | 0.00 | 0.00 | 0.00 | 78 | 1015.7 |
| 20260906004608 | 83 | 39 | 5.2 | 8.7 | 0.00 | 0.00 | 0.00 | 78 | 1015.7 |
| 20260906004037 | 83 | 11 | 4.3 | 7.8 | 0.00 | 0.00 | 0.00 | 78 | 1015.7 |
| 20260906003538 | 83 | 27 | 5.2 | 7.8 | 0.00 | 0.00 | 0.00 | 77 | 1015.6 |
| 20260906003058 | 84 | 22 | 5.2 | 7.8 | 0.00 | 0.00 | 0.00 | 77 | 1015.7 |
| 20260906002539 | 84 | 34 | 4.3 | 9.6 | 0.00 | 0.00 | 0.00 | 76 | 1015.7 |
| 20260906002036 | 84 | 34 | 7.0 | 9.6 | 0.00 | 0.00 | 0.00 | 76 | 1015.6 |
| 20260906001603 | 84 | 2 | 4.3 | 8.7 | 0.00 | 0.00 | 0.00 | 76 | 1015.7 |
| 20260906001038 | 85 | 16 | 6.1 | 11.3 | 0.00 | 0.00 | 0.00 | 76 | 1015.7 |
| 20260906000535 | 85 | 28 | 7.8 | 11.3 | 0.00 | 0.00 | 0.00 | 76 | 1015.7 |
| 20260906000057 | 85 | 35 | 7.0 | 11.3 | 0.00 | 0.00 | 0.00 | 76 | 1015.7 |
| 20260905235538 | 86 | 18 | 6.1 | 12.2 | 0.00 | 0.00 | 0.00 | 75 | 1015.6 |
| 20260905235035 | 86 | 7 | 7.8 | 12.2 | 0.00 | 0.00 | 0.00 | 75 | 1015.5 |
| 20260905234551 | 87 | 32 | 8.7 | 12.2 | 0.00 | 0.00 | 0.00 | 74 | 1015.5 |
| 20260905234038 | 87 | 18 | 7.0 | 11.3 | 0.00 | 0.00 | 0.00 | 73 | 1015.4 |
| 20260905233536 | 88 | 15 | 4.3 | 7.8 | 0.00 | 0.00 | 0.00 | 73 | 1015.4 |
| 20260905233056 | 88 | 22 | 5.2 | 7.8 | 0.00 | 0.00 | 0.00 | 73 | 1015.4 |
| 20260905232535 | 88 | 15 | 4.3 | 7.0 | 0.00 | 0.00 | 0.00 | 72 | 1015.4 |
| 20260905232035 | 88 | 25 | 3.5 | 7.0 | 0.00 | 0.00 | 0.00 | 72 | 1015.3 |
| 20260905231556 | 88 | 30 | 3.5 | 7.8 | 0.00 | 0.00 | 0.00 | 71 | 1015.2 |
| 20260905231036 | 89 | 28 | 5.2 | 10.4 | 0.00 | 0.00 | 0.00 | 70 | 1015.1 |
| 20260905230537 | 89 | 22 | 6.1 | 10.4 | 0.00 | 0.00 | 0.00 | 69 | 1015.2 |
| 20260905230048 | 90 | 12 | 7.0 | 10.4 | 0.00 | 0.00 | 0.00 | 68 | 1015.2 |
| 20260905225538 | 90 | 10 | 6.1 | 8.7 | 0.00 | 0.00 | 0.00 | 68 | 1015.1 |
| 20260905225035 | 91 | 22 | 5.2 | 7.8 | 0.00 | 0.00 | 0.00 | 67 | 1015.1 |
| 20260905224545 | 91 | 16 | 5.2 | 8.7 | 0.00 | 0.00 | 0.00 | 67 | 1015.1 |
| 20260905224036 | 91 | 45 | 3.5 | 8.7 | 0.00 | 0.00 | 0.00 | 68 | 1015.1 |
| 20260905223536 | 91 | 41 | 5.2 | 8.7 | 0.00 | 0.00 | 0.00 | 67 | 1015.1 |
| 20260905223056 | 91 | 29 | 4.3 | 7.0 | 0.00 | 0.00 | 0.00 | 66 | 1015.1 |
| 20260905222536 | 91 | 39 | 3.5 | 7.0 | 0.00 | 0.00 | 0.00 | 67 | 1015.1 |
| 20260905222036 | 91 | 9 | 5.2 | 7.0 | 0.00 | 0.00 | 0.00 | 67 | 1015.0 |
| 20260905221554 | 92 | 11 | 3.5 | 6.1 | 0.00 | 0.00 | 0.00 | 65 | 1015.1 |
| 20260905221036 | 92 | 21 | 2.6 | 7.8 | 0.00 | 0.00 | 0.00 | 65 | 1015.1 |
| 20260905220536 | 92 | 27 | 5.2 | 7.8 | 0.00 | 0.00 | 0.00 | 65 | 1015.2 |
| 20260905220046 | 92 | 326 | 4.3 | 7.0 | 0.00 | 0.00 | 0.00 | 66 | 1015.2 |
| 20260905215536 | 91 | 340 | 2.6 | 7.8 | 0.00 | 0.00 | 0.00 | 67 | 1015.1 |
| 20260905215036 | 91 | 7 | 3.5 | 7.8 | 0.00 | 0.00 | 0.00 | 65 | 1015.1 |
| 20260905214553 | 91 | 16 | 5.2 | 7.8 | 0.00 | 0.00 | 0.00 | 65 | 1015.1 |
| 20260905214036 | 91 | 342 | 4.3 | 7.8 | 0.00 | 0.00 | 0.00 | 66 | 1015.0 |
| 20260905213536 | 91 | 357 | 5.2 | 7.8 | 0.00 | 0.00 | 0.00 | 65 | 1015.1 |
| 20260905213050 | 91 | 347 | 3.5 | 8.7 | 0.00 | 0.00 | 0.00 | 65 | 1015.1 |
| 20260905212540 | 91 | 347 | 6.1 | 8.7 | 0.00 | 0.00 | 0.00 | 65 | 1015.2 |
| 20260905212036 | 91 | 7 | 5.2 | 8.7 | 0.00 | 0.00 | 0.00 | 68 | 1015.2 |
| 20260905211601 | 91 | 20 | 7.0 | 8.7 | 0.00 | 0.00 | 0.00 | 67 | 1015.2 |
| 20260905211036 | 91 | 352 | 6.1 | 9.6 | 0.00 | 0.00 | 0.00 | 67 | 1015.4 |
| 20260905210535 | 91 | 345 | 5.2 | 9.6 | 0.00 | 0.00 | 0.00 | 67 | 1015.4 |
| 20260905210110 | 91 | 349 | 7.8 | 9.6 | 0.00 | 0.00 | 0.00 | 67 | 1015.4 |
| 20260905205536 | 91 | 28 | 6.1 | 9.6 | 0.00 | 0.00 | 0.00 | 67 | 1015.5 |
| 20260905205035 | 91 | 354 | 6.1 | 9.6 | 0.00 | 0.00 | 0.00 | 67 | 1015.6 |
| 20260905204552 | 91 | 21 | 4.3 | 9.6 | 0.00 | 0.00 | 0.00 | 68 | 1015.6 |
| 20260905204036 | 91 | 9 | 6.1 | 9.6 | 0.00 | 0.00 | 0.00 | 69 | 1015.6 |
| 20260905203536 | 91 | 42 | 4.3 | 9.6 | 0.00 | 0.00 | 0.00 | 69 | 1015.6 |
| 20260905203048 | 91 | 11 | 6.1 | 9.6 | 0.00 | 0.00 | 0.00 | 69 | 1015.6 |
| 20260905202535 | 91 | 358 | 4.3 | 8.7 | 0.00 | 0.00 | 0.00 | 69 | 1015.6 |
| 20260905202036 | 91 | 36 | 6.1 | 9.6 | 0.00 | 0.00 | 0.00 | 69 | 1015.5 |
| 20260905201556 | 91 | 357 | 7.0 | 10.4 | 0.00 | 0.00 | 0.00 | 68 | 1015.6 |
| 20260905201035 | 91 | 11 | 7.0 | 9.6 | 0.00 | 0.00 | 0.00 | 67 | 1015.6 |
| 20260905200535 | 92 | 18 | 5.2 | 8.7 | 0.00 | 0.00 | 0.00 | 68 | 1015.6 |
| 20260905200118 | 92 | 352 | 4.3 | 7.0 | 0.00 | 0.00 | 0.00 | 66 | 1015.6 |
| 20260905195535 | 92 | 22 | 3.5 | 7.0 | 0.00 | 0.00 | 0.00 | 66 | 1015.7 |
| 20260905195037 | 91 | 350 | 3.5 | 7.0 | 0.00 | 0.00 | 0.00 | 66 | 1015.8 |
| 20260905194552 | 91 | 336 | 3.5 | 8.7 | 0.00 | 0.00 | 0.00 | 66 | 1015.7 |
| 20260905194036 | 91 | 354 | 4.3 | 8.7 | 0.00 | 0.00 | 0.00 | 67 | 1015.8 |
| 20260905193535 | 91 | 346 | 7.0 | 8.7 | 0.00 | 0.00 | 0.00 | 67 | 1015.9 |
| 20260905193101 | 92 | 343 | 4.3 | 8.7 | 0.00 | 0.00 | 0.00 | 68 | 1015.9 |
| 20260905192536 | 92 | 329 | 5.2 | 8.7 | 0.00 | 0.00 | 0.00 | 65 | 1015.9 |
| 20260905192037 | 92 | 331 | 6.1 | 8.7 | 0.00 | 0.00 | 0.00 | 66 | 1015.8 |
| 20260905191556 | 92 | 324 | 4.3 | 7.8 | 0.00 | 0.00 | 0.00 | 67 | 1015.9 |
| 20260905191036 | 92 | 330 | 2.6 | 7.0 | 0.00 | 0.00 | 0.00 | 65 | 1015.9 |
| 20260905190535 | 92 | 17 | 4.3 | 7.0 | 0.00 | 0.00 | 0.00 | 65 | 1015.9 |
| 20260905190054 | 92 | 353 | 5.2 | 7.8 | 0.00 | 0.00 | 0.00 | 65 | 1016.0 |
| 20260905185535 | 92 | 349 | 5.2 | 7.8 | 0.00 | 0.00 | 0.00 | 65 | 1015.9 |
| 20260905185036 | 92 | 338 | 2.6 | 8.7 | 0.00 | 0.00 | 0.00 | 65 | 1016.0 |
| 20260905184600 | 92 | 341 | 4.3 | 8.7 | 0.00 | 0.00 | 0.00 | 66 | 1015.9 |
| 20260905184039 | 92 | 350 | 3.5 | 8.7 | 0.00 | 0.00 | 0.00 | 65 | 1015.9 |
| 20260905183536 | 92 | 332 | 3.5 | 8.7 | 0.00 | 0.00 | 0.00 | 65 | 1015.9 |
| 20260905183057 | 92 | 9 | 4.3 | 8.7 | 0.00 | 0.00 | 0.00 | 66 | 1016.1 |
| 20260905182539 | 92 | 19 | 6.1 | 8.7 | 0.00 | 0.00 | 0.00 | 66 | 1016.1 |
| 20260905182040 | 92 | 7 | 3.5 | 8.7 | 0.00 | 0.00 | 0.00 | 66 | 1016.0 |
| 20260905181555 | 91 | 20 | 2.6 | 8.7 | 0.00 | 0.00 | 0.00 | 65 | 1016.0 |
| 20260905181035 | 91 | 337 | 5.2 | 8.7 | 0.00 | 0.00 | 0.00 | 65 | 1016.0 |
| 20260905180537 | 91 | 8 | 7.0 | 8.7 | 0.00 | 0.00 | 0.00 | 66 | 1016.1 |
| 20260905180050 | 91 | 16 | 3.5 | 7.8 | 0.00 | 0.00 | 0.00 | 66 | 1016.1 |
| 20260905175536 | 91 | 6 | 5.2 | 7.8 | 0.00 | 0.00 | 0.00 | 67 | 1016.1 |
| 20260905175037 | 91 | 18 | 3.5 | 9.6 | 0.00 | 0.00 | 0.00 | 67 | 1016.1 |
| 20260905174546 | 91 | 340 | 5.2 | 9.6 | 0.00 | 0.00 | 0.00 | 66 | 1016.2 |
| 20260905174039 | 91 | 352 | 7.0 | 9.6 | 0.00 | 0.00 | 0.00 | 66 | 1016.4 |
| 20260905173535 | 91 | 347 | 6.1 | 8.7 | 0.00 | 0.00 | 0.00 | 65 | 1016.3 |
| 20260905173055 | 91 | 19 | 3.5 | 9.6 | 0.00 | 0.00 | 0.00 | 67 | 1016.3 |
| 20260905172536 | 90 | 13 | 5.2 | 9.6 | 0.00 | 0.00 | 0.00 | 66 | 1016.4 |
| 20260905172035 | 90 | 30 | 5.2 | 9.6 | 0.00 | 0.00 | 0.00 | 67 | 1016.5 |
| 20260905171553 | 90 | 30 | 6.1 | 9.6 | 0.00 | 0.00 | 0.00 | 68 | 1016.5 |
| 20260905171037 | 90 | 34 | 5.2 | 9.6 | 0.00 | 0.00 | 0.00 | 69 | 1016.5 |
| 20260905170535 | 90 | 357 | 7.0 | 9.6 | 0.00 | 0.00 | 0.00 | 68 | 1016.6 |
| 20260905170057 | 90 | 11 | 5.2 | 7.8 | 0.00 | 0.00 | 0.00 | 67 | 1016.6 |
| 20260905165537 | 90 | 347 | 4.3 | 8.7 | 0.00 | 0.00 | 0.00 | 68 | 1016.6 |
| 20260905165035 | 90 | 342 | 3.5 | 8.7 | 0.00 | 0.00 | 0.00 | 68 | 1016.6 |
| 20260905164554 | 90 | 6 | 4.3 | 8.7 | 0.00 | 0.00 | 0.00 | 69 | 1016.6 |
| 20260905164036 | 90 | 342 | 3.5 | 8.7 | 0.00 | 0.00 | 0.00 | 69 | 1016.6 |
| 20260905163535 | 89 | 5 | 4.3 | 8.7 | 0.00 | 0.00 | 0.00 | 69 | 1016.6 |
| 20260905163053 | 89 | 21 | 4.3 | 9.6 | 0.00 | 0.00 | 0.00 | 69 | 1016.6 |
| 20260905162535 | 89 | 41 | 4.3 | 9.6 | 0.00 | 0.00 | 0.00 | 69 | 1016.6 |
| 20260905162034 | 89 | 7 | 6.1 | 9.6 | 0.00 | 0.00 | 0.00 | 68 | 1016.6 |
| 20260905161547 | 89 | 334 | 6.1 | 8.7 | 0.00 | 0.00 | 0.00 | 68 | 1016.5 |
| 20260905161036 | 89 | 11 | 5.2 | 8.7 | 0.00 | 0.00 | 0.00 | 68 | 1016.4 |
| 20260905160538 | 89 | 341 | 5.2 | 8.7 | 0.00 | 0.00 | 0.00 | 67 | 1016.4 |
| 20260905160056 | 89 | 330 | 6.1 | 8.7 | 0.00 | 0.00 | 0.00 | 66 | 1016.5 |
| 20260905155536 | 88 | 331 | 4.3 | 8.7 | 0.00 | 0.00 | 0.00 | 67 | 1016.3 |
| 20260905155035 | 88 | 14 | 4.3 | 8.7 | 0.00 | 0.00 | 0.00 | 68 | 1016.3 |
| 20260905154601 | 88 | 343 | 6.1 | 8.7 | 0.00 | 0.00 | 0.00 | 69 | 1016.3 |
| 20260905154035 | 87 | 356 | 6.1 | 9.6 | 0.00 | 0.00 | 0.00 | 70 | 1016.4 |
| 20260905153537 | 87 | 2 | 7.0 | 9.6 | 0.00 | 0.00 | 0.00 | 71 | 1016.5 |
| 20260905153052 | 87 | 1 | 6.1 | 8.7 | 0.00 | 0.00 | 0.00 | 71 | 1016.4 |
| 20260905152535 | 87 | 360 | 3.5 | 8.7 | 0.00 | 0.00 | 0.00 | 70 | 1016.3 |
| 20260905152035 | 87 | 338 | 6.1 | 8.7 | 0.00 | 0.00 | 0.00 | 70 | 1016.3 |
| 20260905151558 | 87 | 353 | 6.1 | 7.8 | 0.00 | 0.00 | 0.00 | 70 | 1016.3 |
| 20260905151035 | 87 | 331 | 4.3 | 7.0 | 0.00 | 0.00 | 0.00 | 71 | 1016.3 |
| 20260905150535 | 87 | 336 | 2.6 | 6.1 | 0.00 | 0.00 | 0.00 | 71 | 1016.2 |
| 20260905150055 | 87 | 325 | 3.5 | 7.0 | 0.00 | 0.00 | 0.00 | 71 | 1016.0 |
| 20260905145536 | 87 | 337 | 5.2 | 7.0 | 0.00 | 0.00 | 0.00 | 70 | 1015.9 |
| 20260905145035 | 87 | 341 | 4.3 | 7.0 | 0.00 | 0.00 | 0.00 | 71 | 1016.0 |
| 20260905144555 | 86 | 342 | 1.7 | 7.8 | 0.00 | 0.00 | 0.00 | 71 | 1015.8 |
| 20260905144035 | 86 | 274 | 3.5 | 7.8 | 0.00 | 0.00 | 0.00 | 70 | 1015.8 |
| 20260905143535 | 86 | 298 | 3.5 | 7.0 | 0.00 | 0.00 | 0.00 | 70 | 1015.7 |
| 20260905143052 | 86 | 274 | 2.6 | 5.2 | 0.00 | 0.00 | 0.00 | 72 | 1015.6 |
| 20260905142535 | 85 | 267 | 2.6 | 5.2 | 0.00 | 0.00 | 0.00 | 72 | 1015.6 |
| 20260905142035 | 85 | 251 | 2.6 | 5.2 | 0.00 | 0.00 | 0.00 | 71 | 1015.6 |
| 20260905141555 | 85 | 0 | 2.6 | 5.2 | 0.00 | 0.00 | 0.00 | 71 | 1015.6 |
| 20260905141035 | 85 | 242 | 2.6 | 5.2 | 0.00 | 0.00 | 0.00 | 71 | 1015.5 |
| 20260905140535 | 85 | 251 | 1.7 | 4.3 | 0.00 | 0.00 | 0.00 | 72 | 1015.4 |
| 20260905140055 | 84 | 257 | 0.9 | 5.2 | 0.00 | 0.00 | 0.00 | 72 | 1015.4 |
| 20260905135539 | 84 | 269 | 0.9 | 6.1 | 0.00 | 0.00 | 0.00 | 73 | 1015.6 |
| 20260905135035 | 84 | 290 | 3.5 | 6.1 | 0.00 | 0.00 | 0.00 | 72 | 1015.5 |
| 20260905134552 | 83 | 286 | 2.6 | 5.2 | 0.00 | 0.00 | 0.00 | 73 | 1015.5 |
| 20260905134037 | 83 | 245 | 1.7 | 7.0 | 0.00 | 0.00 | 0.00 | 74 | 1015.3 |
| 20260905133535 | 83 | 255 | 2.6 | 7.0 | 0.00 | 0.00 | 0.00 | 73 | 1015.4 |
| 20260905133044 | 83 | 272 | 2.6 | 5.2 | 0.00 | 0.00 | 0.00 | 74 | 1015.2 |
| 20260905132535 | 82 | 224 | 1.7 | 6.1 | 0.00 | 0.00 | 0.00 | 75 | 1015.1 |
| 20260905132036 | 82 | 237 | 2.6 | 6.1 | 0.00 | 0.00 | 0.00 | 75 | 1015.1 |
| 20260905131603 | 81 | 246 | 2.6 | 6.1 | 0.00 | 0.00 | 0.00 | 76 | 1015.1 |
| 20260905131035 | 81 | 234 | 2.6 | 6.1 | 0.00 | 0.00 | 0.00 | 77 | 1015.1 |
| 20260905130535 | 80 | 240 | 2.6 | 6.1 | 0.00 | 0.00 | 0.00 | 77 | 1015.1 |
| 20260905130051 | 79 | 236 | 2.6 | 6.1 | 0.00 | 0.00 | 0.00 | 78 | 1015.1 |
| 20260905125535 | 79 | 226 | 1.7 | 4.3 | 0.00 | 0.00 | 0.00 | 79 | 1015.1 |
| 20260905125035 | 79 | 245 | 1.7 | 4.3 | 0.00 | 0.00 | 0.00 | 80 | 1015.3 |
| 20260905124548 | 78 | 235 | 1.7 | 4.3 | 0.00 | 0.00 | 0.00 | 81 | 1015.4 |
| 20260905124037 | 78 | 226 | 0.9 | 4.3 | 0.00 | 0.00 | 0.00 | 81 | 1015.4 |
| 20260905123537 | 77 | 262 | 1.7 | 4.3 | 0.00 | 0.00 | 0.00 | 82 | 1015.4 |
| 20260905123109 | 77 | 244 | 0.9 | 2.6 | 0.00 | 0.00 | 0.00 | 83 | 1015.5 |
| 20260905122535 | 76 | 356 | 0.0 | 1.7 | 0.00 | 0.00 | 0.00 | 83 | 1015.3 |
| 20260905122038 | 76 | 0 | 0.0 | 0.9 | 0.00 | 0.00 | 0.00 | 83 | 1015.2 |
| 20260905121553 | 76 | 0 | 0.0 | 1.7 | 0.00 | 0.00 | 0.00 | 83 | 1015.1 |
| 20260905121035 | 76 | 0 | 0.0 | 3.5 | 0.00 | 0.00 | 0.00 | 83 | 1015.0 |
| 20260905120537 | 76 | 356 | 0.9 | 3.5 | 0.00 | 0.00 | 0.00 | 83 | 1015.0 |
| 20260905120048 | 76 | 356 | 1.7 | 3.5 | 0.00 | 0.00 | 0.00 | 83 | 1014.9 |
| 20260905115538 | 76 | 356 | 1.7 | 3.5 | 0.00 | 0.00 | 0.00 | 83 | 1014.7 |
| 20260905115041 | 76 | 0 | 0.0 | 0.9 | 0.00 | 0.00 | 0.00 | 83 | 1014.7 |
| 20260905114548 | 76 | 199 | 0.0 | 0.9 | 0.00 | 0.00 | 0.00 | 83 | 1014.6 |
| 20260905114037 | 76 | 199 | 0.0 | 1.7 | 0.00 | 0.00 | 0.00 | 83 | 1014.6 |
| 20260905113539 | 76 | 199 | 0.9 | 1.7 | 0.00 | 0.00 | 0.00 | 83 | 1014.5 |
| 20260905113055 | 77 | 199 | 0.9 | 1.7 | 0.00 | 0.00 | 0.00 | 82 | 1014.5 |
| 20260905112534 | 77 | 199 | 0.9 | 1.7 | 0.00 | 0.00 | 0.00 | 82 | 1014.5 |
| 20260905112035 | 77 | 199 | 0.9 | 1.7 | 0.00 | 0.00 | 0.00 | 82 | 1014.5 |
| 20260905111556 | 77 | 199 | 0.0 | 1.7 | 0.00 | 0.00 | 0.00 | 82 | 1014.5 |
| 20260905111035 | 77 | 199 | 0.0 | 1.7 | 0.00 | 0.00 | 0.00 | 81 | 1014.5 |
| 20260905110542 | 77 | 199 | 0.9 | 1.7 | 0.00 | 0.00 | 0.00 | 81 | 1014.4 |
| 20260905110047 | 78 | 199 | 0.0 | 1.7 | 0.00 | 0.00 | 0.00 | 79 | 1014.4 |
| 20260905105538 | 78 | 0 | 0.0 | 1.7 | 0.00 | 0.00 | 0.00 | 79 | 1014.3 |
| 20260905105036 | 78 | 199 | 0.9 | 1.7 | 0.00 | 0.00 | 0.00 | 79 | 1014.3 |
| 20260905104545 | 78 | 0 | 0.0 | 1.7 | 0.00 | 0.00 | 0.00 | 79 | 1014.4 |
| 20260905104034 | 78 | 0 | 0.0 | 1.7 | 0.00 | 0.00 | 0.00 | 79 | 1014.4 |
| 20260905103539 | 78 | 0 | 0.0 | 1.7 | 0.00 | 0.00 | 0.00 | 79 | 1014.4 |
| 20260905103103 | 78 | 199 | 0.9 | 2.6 | 0.00 | 0.00 | 0.00 | 79 | 1014.4 |
| 20260905102534 | 78 | 199 | 0.9 | 3.5 | 0.00 | 0.00 | 0.00 | 80 | 1014.4 |
| 20260905102034 | 78 | 199 | 0.9 | 3.5 | 0.00 | 0.00 | 0.00 | 80 | 1014.4 |
| 20260905101553 | 78 | 209 | 1.7 | 3.5 | 0.00 | 0.00 | 0.00 | 80 | 1014.5 |
| 20260905101034 | 78 | 218 | 1.7 | 5.2 | 0.00 | 0.00 | 0.00 | 81 | 1014.5 |
| 20260905100534 | 77 | 209 | 1.7 | 5.2 | 0.00 | 0.00 | 0.00 | 81 | 1014.5 |
| 20260905095534 | 77 | 220 | 1.7 | 5.2 | 0.00 | 0.00 | 0.00 | 83 | 1014.6 |
| 20260905095039 | 77 | 210 | 1.7 | 2.6 | 0.00 | 0.00 | 0.00 | 83 | 1014.6 |
| 20260905094555 | 77 | 202 | 0.9 | 1.7 | 0.00 | 0.00 | 0.00 | 84 | 1014.7 |
| 20260905094035 | 77 | 202 | 0.9 | 1.7 | 0.00 | 0.00 | 0.00 | 84 | 1014.6 |
| 20260905093534 | 76 | 202 | 0.9 | 1.7 | 0.00 | 0.00 | 0.00 | 84 | 1014.7 |
| 20260905093050 | 76 | 202 | 0.9 | 1.7 | 0.00 | 0.00 | 0.00 | 84 | 1014.7 |
| 20260905092534 | 76 | 202 | 0.9 | 1.7 | 0.00 | 0.00 | 0.00 | 84 | 1014.8 |
| 20260905092035 | 76 | 0 | 0.0 | 2.6 | 0.00 | 0.00 | 0.00 | 84 | 1014.8 |
| 20260905091553 | 77 | 0 | 0.9 | 2.6 | 0.00 | 0.00 | 0.00 | 84 | 1014.7 |
| 20260905091038 | 77 | 202 | 0.9 | 1.7 | 0.00 | 0.00 | 0.00 | 83 | 1014.7 |
| 20260905090534 | 77 | 202 | 0.0 | 1.7 | 0.00 | 0.00 | 0.00 | 83 | 1014.6 |
| 20260905090055 | 77 | 202 | 0.9 | 1.7 | 0.00 | 0.00 | 0.00 | 83 | 1014.6 |
| 20260905085536 | 77 | 202 | 0.9 | 1.7 | 0.00 | 0.00 | 0.00 | 83 | 1014.6 |
| 20260905085035 | 77 | 202 | 0.0 | 2.6 | 0.00 | 0.00 | 0.00 | 82 | 1014.6 |
| 20260905084606 | 78 | 0 | 0.0 | 2.6 | 0.00 | 0.00 | 0.00 | 82 | 1014.7 |
| 20260905084035 | 78 | 202 | 0.9 | 2.6 | 0.00 | 0.00 | 0.00 | 82 | 1014.7 |
| 20260905083540 | 78 | 202 | 0.9 | 1.7 | 0.00 | 0.00 | 0.00 | 82 | 1014.8 |
| 20260905083059 | 78 | 202 | 0.0 | 1.7 | 0.00 | 0.00 | 0.00 | 82 | 1014.7 |
| 20260905082535 | 78 | 202 | 0.9 | 1.7 | 0.00 | 0.00 | 0.00 | 82 | 1014.7 |
| 20260905082035 | 78 | 0 | 0.0 | 2.6 | 0.00 | 0.00 | 0.00 | 81 | 1014.7 |
| 20260905081545 | 78 | 0 | 0.9 | 2.6 | 0.00 | 0.00 | 0.00 | 81 | 1014.8 |
| 20260905081034 | 78 | 202 | 0.9 | 1.7 | 0.00 | 0.00 | 0.00 | 81 | 1014.8 |
| 20260905080538 | 78 | 202 | 0.0 | 2.6 | 0.00 | 0.00 | 0.00 | 81 | 1014.9 |
| 20260905080134 | 78 | 202 | 0.9 | 3.5 | 0.00 | 0.00 | 0.00 | 81 | 1014.8 |
| 20260905075536 | 78 | 202 | 1.7 | 3.5 | 0.00 | 0.00 | 0.00 | 81 | 1014.9 |
| 20260905075035 | 78 | 166 | 1.7 | 2.6 | 0.00 | 0.00 | 0.00 | 81 | 1014.9 |
| 20260905074553 | 78 | 166 | 0.9 | 2.6 | 0.00 | 0.00 | 0.00 | 81 | 1014.9 |
| 20260905074036 | 79 | 166 | 0.0 | 0.9 | 0.00 | 0.00 | 0.00 | 81 | 1014.9 |
| 20260905073538 | 79 | 0 | 0.0 | 2.6 | 0.00 | 0.00 | 0.00 | 82 | 1014.9 |
| 20260905073049 | 78 | 0 | 0.0 | 2.6 | 0.00 | 0.00 | 0.00 | 82 | 1014.8 |
| 20260905072538 | 79 | 166 | 0.9 | 2.6 | 0.00 | 0.00 | 0.00 | 82 | 1014.8 |
| 20260905072034 | 79 | 166 | 1.7 | 3.5 | 0.00 | 0.00 | 0.00 | 82 | 1014.7 |
| 20260905071602 | 79 | 178 | 1.7 | 3.5 | 0.00 | 0.00 | 0.00 | 82 | 1014.6 |
| 20260905071037 | 79 | 170 | 1.7 | 3.5 | 0.00 | 0.00 | 0.00 | 81 | 1014.7 |
| 20260905070534 | 79 | 170 | 0.9 | 2.6 | 0.00 | 0.00 | 0.00 | 81 | 1014.8 |
| 20260905070057 | 79 | 170 | 0.9 | 2.6 | 0.00 | 0.00 | 0.00 | 81 | 1014.9 |
| 20260905065534 | 79 | 170 | 0.9 | 1.7 | 0.00 | 0.00 | 0.00 | 81 | 1014.9 |
| 20260905065035 | 79 | 170 | 0.9 | 4.3 | 0.00 | 0.00 | 0.00 | 81 | 1014.9 |
| 20260905064600 | 79 | 170 | 0.9 | 4.3 | 0.00 | 0.00 | 0.00 | 81 | 1014.8 |
| 20260905064035 | 79 | 186 | 1.7 | 3.5 | 0.00 | 0.00 | 0.00 | 81 | 1014.6 |
| 20260905063535 | 79 | 181 | 1.7 | 3.5 | 0.00 | 0.00 | 0.00 | 82 | 1014.7 |
| 20260905063057 | 79 | 181 | 1.7 | 3.5 | 0.00 | 0.00 | 0.00 | 82 | 1014.7 |
| 20260905062535 | 79 | 181 | 1.7 | 3.5 | 0.00 | 0.00 | 0.00 | 83 | 1014.7 |
| 20260905062037 | 78 | 180 | 1.7 | 3.5 | 0.00 | 0.00 | 0.00 | 84 | 1014.8 |
| 20260905061551 | 78 | 188 | 1.7 | 3.5 | 0.00 | 0.00 | 0.00 | 84 | 1014.8 |
| 20260905061037 | 78 | 113 | 1.7 | 3.5 | 0.00 | 0.00 | 0.00 | 85 | 1014.9 |
| 20260905060535 | 78 | 113 | 0.9 | 2.6 | 0.00 | 0.00 | 0.00 | 85 | 1015.0 |
| 20260905060101 | 78 | 113 | 0.9 | 1.7 | 0.00 | 0.00 | 0.00 | 85 | 1014.9 |
| 20260905055538 | 78 | 113 | 0.9 | 1.7 | 0.00 | 0.00 | 0.00 | 85 | 1015.0 |
| 20260905055034 | 78 | 113 | 0.9 | 2.6 | 0.00 | 0.00 | 0.00 | 85 | 1015.1 |
| 20260905054554 | 78 | 113 | 0.9 | 2.6 | 0.00 | 0.00 | 0.00 | 84 | 1015.1 |
| 20260905054035 | 79 | 113 | 0.9 | 2.6 | 0.00 | 0.00 | 0.00 | 84 | 1015.2 |
| 20260905053536 | 79 | 113 | 0.0 | 2.6 | 0.00 | 0.00 | 0.00 | 83 | 1015.2 |
| 20260905053058 | 79 | 113 | 0.9 | 2.6 | 0.00 | 0.00 | 0.00 | 83 | 1015.3 |